Location: Tel Aviv
(32.0670°N, 34.7670°E)
Time: 08:33:15
(UTC+02:00)

S-56A Canister/Altair - Visible Passes

Search period start: 29 November 2023 00:00
Search period end: 09 December 2023 00:00
Orbit: 640 x 2489 km, 38.9° (Epoch: 28 November)

Date Brightness Start Highest point End Pass type
(mag) Time Alt. Az. Time Alt. Az. Time Alt. Az.
29 Nov 8.4 16:54:30 10° WNW 17:00:24 65° NNE 17:09:18 10° E visible
29 Nov 9.3 18:57:53 10° WNW 19:05:06 55° SSW 19:10:39 29° SSE visible
29 Nov 10.9 21:03:58 10° W 21:08:09 18° SW 21:08:09 18° SW visible
30 Nov 9.0 18:24:54 10° WNW 18:31:41 61° SSW 18:40:45 14° SE visible
30 Nov 10.7 20:30:20 10° W 20:36:42 21° SW 20:38:18 20° SSW visible
01 Dec 8.8 17:51:59 10° WNW 17:58:20 67° SSW 18:08:03 10° SE visible
01 Dec 10.6 19:56:53 10° W 20:03:11 23° SW 20:09:04 15° S visible
02 Dec 8.5 17:19:05 10° WNW 17:25:03 74° SSW 17:34:06 10° SE visible
02 Dec 10.4 19:23:33 10° W 19:29:43 26° SW 19:37:59 10° SSE visible
03 Dec 10.2 18:50:20 10° W 18:56:17 28° SSW 19:04:27 10° SSE visible
04 Dec 10.1 18:17:13 10° W 18:22:56 31° SSW 18:30:54 10° SSE visible
05 Dec 9.8 17:44:08 10° W 17:49:37 34° SSW 17:57:19 10° SSE visible
06 Dec 9.6 17:11:08 10° W 17:16:22 37° SSW 17:23:45 10° SSE visible
07 Dec 11.3 18:47:15 10° SW 18:47:36 10° SW 18:47:57 10° SSW visible
08 Dec 11.1 18:12:10 10° SW 18:14:16 11° SW 18:16:35 10° SSW visible
